Theta_e
282 280 280 281 281 281 281 281 281 282 282 283 284 284 286 286 286 286 286 287 286 287 288 287 287 289 289 288 289 290 290 290 287 289 292 292 290 290 292 293 295 297 295
280 280 280 281 281 280 280 281 281 281 282 283 283 284 284 284 284 285 285 285 285 285 286 286 286 287 287 288 289 288 289 290 288 286 289 290 290 292 293 291 293 295 293
280 279 280 280 280 279 280 280 281 281 281 282 283 282 282 282 282 283 284 285 285 286 286 286 286 287 286 287 287 287 288 289 288 287 286 289 290 292 289 289 289 289 291
279 279 279 279 280 279 280 280 280 281 280 281 281 281 281 280 281 281 283 284 285 286 285 284 285 284 284 284 284 285 286 286 287 286 286 287 289 290 288 289 290 286 287
278 278 278 279 279 279 279 279 280 281 281 281 281 280 280 280 281 283 284 286 284 283 282 282 283 283 283 284 284 283 284 284 284 284 284 285 286 286 287 289 288 287 285
278 277 275 275 275 275 278 277 279 280 280 280 279 279 278 280 282 284 286 284 283 279 279 279 280 281 282 284 284 286 286 283 283 283 283 283 283 286 290 289 289 285 286
275 272 272 271 273 273 276 276 276 280 282 282 281 278 276 275 282 284 286 283 281 278 278 278 280 281 281 282 283 285 283 285 287 285 283 284 284 286 289 288 287 286 287
271 271 269 270 272 273 276 277 279 282 281 281 279 274 272 274 282 283 284 283 280 277 277 277 280 279 281 282 282 279 279 281 283 283 282 282 284 285 286 286 289 286 285
270 271 270 270 272 274 275 276 281 280 281 281 281 274 270 270 279 282 283 282 280 277 277 277 278 280 283 284 280 277 277 277 281 283 284 286 286 287 287 286 286 286 282
272 272 270 270 272 275 274 277 280 278 280 281 280 277 269 268 277 282 281 281 279 279 277 278 281 280 283 282 279 277 276 276 277 279 279 280 281 281 284 288 288 287 283
273 271 270 270 273 275 276 278 271 278 280 279 275 269 267 268 271 281 282 278 277 278 276 277 277 282 282 281 281 278 278 278 276 276 277 277 279 279 279 281 284 286 284
273 273 272 272 274 274 273 271 272 279 278 276 268 270 271 270 276 280 281 281 280 276 275 275 276 281 281 280 279 280 279 277 276 276 276 275 276 277 278 277 278 279 280
272 272 271 271 273 275 274 274 277 278 275 273 271 270 269 272 272 280 280 280 278 274 274 276 278 278 277 275 278 277 273 272 273 274 273 274 275 277 278 279 279 278 277
273 272 271 271 271 272 275 275 276 274 273 272 271 271 269 270 271 273 274 272 275 273 273 269 274 274 275 273 271 271 271 271 271 272 272 274 275 275 276 277 277 277 275
275 273 272 272 272 272 274 275 275 274 275 272 272 271 268 267 272 279 277 272 269 274 262 263 265 266 267 268 268 268 268 268 268 270 271 272 273 274 273 276 276 275 273
276 274 273 273 272 272 273 272 280 280 280 281 281 276 273 278 280 281 280 280 279 276 261 258 262 264 264 264 264 265 265 265 265 268 269 270 270 271 272 273 273 273 272
277 276 274 273 273 272 272 273 272 273 282 282 283 283 281 279 281 280 278 277 276 270 257 256 258 260 261 262 261 261 261 262 261 264 264 267 269 270 270 270 272 271 268
277 277 275 274 274 273 273 273 273 273 274 273 280 282 282 282 281 280 278 271 261 260 253 254 255 256 257 258 259 257 258 260 261 262 262 262 263 266 267 267 267 267 267
276 277 276 274 274 273 273 271 272 272 273 270 267 276 277 282 281 280 280 261 258 256 252 253 252 253 254 254 254 255 255 257 257 258 258 260 260 264 262 262 264 265 266
276 275 275 274 273 272 272 272 271 273 273 273 270 273 263 268 270 263 257 256 255 256 255 254 251 250 250 251 251 252 256 256 257 258 257 257 257 259 259 260 261 262 261
275 275 274 273 273 273 273 272 272 272 273 272 272 271 272 272 270 266 262 258 258 258 258 257 253 250 249 249 250 252 254 254 253 254 255 255 255 257 256 260 259 259 260
274 274 273 273 273 273 273 273 272 272 273 272 270 268 279 269 266 266 263 262 261 257 257 258 255 254 253 253 253 253 253 252 250 252 254 254 256 256 257 257 257 257 257
273 272 272 272 273 272 272 272 272 272 272 272 271 270 272 273 268 266 266 262 258 256 254 257 256 252 247 248 249 253 255 254 254 252 256 255 255 255 255 255 255 253 253
272 272 272 272 271 271 272 272 272 271 272 272 271 271 272 274 268 266 265 261 258 255 254 256 257 257 253 249 248 248 248 249 250 253 255 257 254 254 254 252 252 251 254
268 270 272 271 272 272 272 272 272 272 271 271 272 271 271 272 270 267 264 262 260 258 255 255 255 257 257 255 252 252 254 256 251 253 254 255 254 253 252 252 248 250 249
264 268 271 271 271 272 272 272 272 272 272 272 271 271 271 271 271 268 265 262 261 259 257 256 256 257 257 256 255 255 257 259 255 255 255 255 254 251 252 251 249 250 250
Wind_Speed
7 6 7 6 6 5 4 5 5 4 5 5 6 6 7 7 7 7 8 9 10 9 9 10 12 12 8 9 9 10 10 10 15 12 10 9 8 9 10 7 7 8 5
7 7 7 7 6 5 5 5 4 5 5 5 5 6 6 6 6 8 9 9 10 11 11 11 12 9 12 11 9 12 11 11 12 21 12 10 13 12 9 11 9 6 5
7 7 7 7 7 6 6 5 4 5 5 5 5 5 5 6 7 8 9 10 10 11 11 11 11 11 11 10 11 11 10 10 12 12 13 11 10 8 6 7 8 6 4
9 9 9 9 8 7 6 5 4 4 4 5 5 5 5 6 6 7 8 10 11 8 7 9 10 10 11 12 11 13 12 11 12 11 11 10 8 7 3 8 9 3 3
11 11 11 8 6 6 5 4 4 4 4 5 4 4 5 4 4 7 8 7 7 8 8 8 8 10 17 17 10 11 12 11 10 10 11 10 9 10 10 7 6 2 3
12 14 8 7 6 6 5 4 4 4 4 5 4 5 5 5 11 13 13 5 7 7 9 8 8 10 12 20 21 23 19 13 13 11 10 11 14 10 7 5 6 2 2
10 7 8 7 8 7 6 5 4 4 3 4 5 5 5 4 11 13 15 3 6 7 7 7 8 6 11 12 16 19 18 20 20 14 15 13 12 10 10 7 5 3 3
8 8 7 8 8 7 7 6 5 4 4 4 3 5 4 4 12 12 14 6 5 6 6 7 8 10 12 14 12 11 10 9 7 5 6 9 10 10 10 10 9 3 3
10 11 10 10 9 8 8 7 6 4 5 6 7 5 3 5 11 12 11 6 8 7 7 6 6 10 17 21 10 10 10 7 7 14 15 18 18 19 17 9 7 5 2
10 13 10 10 10 11 8 7 8 4 6 5 8 4 4 4 10 11 8 3 8 8 6 6 11 13 21 19 9 9 9 7 8 7 6 7 7 8 15 6 7 7 3
2 6 8 9 10 9 7 6 4 5 6 6 5 4 5 3 6 8 8 1 3 5 6 6 7 18 19 17 16 7 8 8 9 5 4 5 5 7 6 5 5 4 3
5 6 8 9 8 6 7 4 3 6 8 7 3 5 3 3 6 7 7 7 7 3 5 6 7 18 17 16 12 17 15 10 5 5 6 7 7 7 8 8 10 12 11
5 8 7 7 8 8 9 7 6 8 7 6 3 3 3 2 2 7 4 6 6 2 4 9 13 14 14 11 16 17 11 7 6 6 7 6 6 6 6 5 9 14 18
8 8 6 8 7 6 6 6 7 7 6 4 4 4 3 2 2 3 1 1 4 4 6 5 7 9 11 10 6 9 7 7 6 5 4 5 5 6 8 7 7 9 13
9 6 7 7 9 7 7 8 8 5 6 5 5 4 4 3 3 4 1 0 1 2 3 3 4 4 8 8 6 7 7 7 7 7 6 6 6 7 8 6 8 10 11
9 6 7 6 7 6 6 4 13 12 14 14 11 7 3 6 5 2 3 3 4 5 5 3 3 4 5 6 7 7 6 8 6 6 6 6 7 7 7 8 8 9 10
10 7 6 6 6 7 7 7 7 5 13 13 14 11 10 6 7 4 2 7 8 7 4 2 2 3 3 3 3 5 5 5 4 5 6 6 6 8 8 8 8 8 9
11 9 7 8 8 6 7 7 6 7 7 4 12 10 12 10 8 6 6 4 4 6 2 2 0 2 2 3 4 3 3 4 6 6 7 6 6 6 7 8 8 8 7
10 8 8 7 7 7 6 6 6 6 6 4 1 2 5 12 9 9 6 3 3 2 2 2 2 1 1 2 2 3 2 4 3 4 4 5 5 5 7 6 7 10 10
9 9 9 7 7 7 6 7 6 7 7 7 5 7 3 3 3 2 2 2 2 3 4 4 3 2 2 1 2 3 4 5 5 5 4 5 5 5 6 6 6 8 8
6 7 10 6 7 8 8 8 7 7 7 8 8 7 14 7 6 4 4 4 4 3 5 5 4 3 3 3 2 3 4 3 3 3 4 4 3 5 3 6 6 5 6
6 7 7 8 7 8 8 7 7 8 8 8 6 6 20 6 5 5 4 4 5 4 2 5 4 4 4 4 5 4 4 4 3 3 4 4 4 5 5 6 6 5 6
6 7 7 6 7 7 7 8 8 8 8 8 7 7 8 9 8 6 6 4 4 4 4 4 5 4 2 2 3 4 5 5 5 3 5 4 4 5 4 5 4 5 4
6 8 8 7 6 7 7 8 8 9 8 8 8 8 9 9 8 8 6 5 5 4 3 4 4 6 5 3 3 2 3 3 4 5 6 7 6 5 5 5 4 4 6
4 5 7 8 8 8 7 8 8 8 9 8 9 8 8 8 8 7 6 6 5 6 5 4 3 6 8 8 6 6 6 7 5 5 5 7 8 7 6 5 4 4 4
3 4 6 6 7 7 8 8 9 9 9 9 8 9 9 9 9 8 8 8 7 6 7 5 6 8 9 7 8 8 8 9 7 7 5 6 7 5 5 7 7 5 6
Wind_Direction
227 200 190 195 198 202 216 232 236 254 264 270 274 278 283 288 284 286 284 284 280 283 282 282 281 280 275 275 272 269 269 268 271 284 282 285 277 274 278 262 269 274 282
216 206 195 183 186 202 220 228 239 253 266 271 276 280 287 286 294 295 290 285 282 281 282 281 278 278 277 273 267 269 263 268 271 284 284 280 272 274 265 284 280 267 259
210 207 196 187 188 206 212 215 232 247 261 272 274 284 287 291 301 301 296 291 285 277 274 276 283 288 285 279 272 269 266 268 271 276 285 278 274 265 263 263 264 262 249
200 203 202 194 193 198 201 207 232 249 266 272 278 281 285 288 297 291 287 284 282 289 314 292 294 297 294 295 289 283 279 274 270 270 277 280 279 278 255 279 273 219 247
197 199 207 189 179 185 197 213 235 248 262 270 275 286 280 300 285 299 300 305 317 306 299 288 287 288 291 292 289 285 280 271 265 265 267 269 269 270 257 256 240 234 210
200 202 176 178 170 184 181 214 231 246 251 271 271 282 285 309 308 317 318 317 304 292 291 285 283 288 290 298 297 293 280 275 267 265 266 263 272 263 276 233 242 185 234
199 178 174 178 179 187 174 211 215 227 236 253 278 291 287 295 317 315 320 278 299 281 278 298 299 294 295 290 293 303 299 281 264 261 262 261 275 282 293 271 202 201 210
191 183 176 180 183 180 185 203 210 212 227 245 260 276 273 294 317 308 308 301 300 288 295 290 302 313 308 316 320 312 304 297 290 302 284 275 270 275 266 271 275 147 79
197 195 192 184 180 184 192 199 206 221 230 250 263 268 270 287 312 305 311 316 325 314 301 292 309 314 320 332 328 316 309 314 315 304 294 280 279 282 275 267 220 168 138
203 203 184 179 184 193 186 195 217 191 240 253 267 255 257 270 300 302 325 337 331 330 319 308 328 329 342 338 338 324 326 322 325 329 326 324 317 307 321 233 185 172 125
159 160 173 183 193 192 177 197 183 201 236 248 268 281 263 226 287 307 344 335 301 323 317 322 325 336 347 347 359 338 341 345 330 335 338 353 360 4 357 9 55 101 123
202 194 191 184 191 180 174 176 192 211 234 239 251 275 249 249 276 297 351 353 352 335 317 312 312 340 351 358 6 10 11 3 351 7 13 13 7 7 19 32 58 67 56
199 215 200 173 187 176 183 184 201 218 222 236 219 239 261 265 281 297 354 357 6 28 320 329 341 352 3 2 9 17 13 10 11 25 17 5 359 360 8 38 61 71 63
224 217 194 179 184 178 184 181 192 199 205 217 218 227 245 256 261 282 293 322 23 8 344 344 360 9 20 19 353 7 11 9 14 17 6 1 357 20 25 17 52 65 68
223 211 201 192 184 185 198 188 197 205 186 191 214 189 197 251 241 278 351 17 55 35 32 4 4 354 9 7 5 9 12 15 22 9 12 16 30 31 33 24 52 66 83
227 200 202 195 182 183 182 199 224 218 216 227 228 198 214 219 234 295 35 50 71 60 49 24 4 4 28 360 360 359 12 13 12 9 25 28 32 42 50 48 56 65 75
235 206 185 186 189 185 180 182 199 248 224 219 222 218 209 193 211 217 120 72 76 82 77 1 41 17 2 6 10 6 355 355 328 29 29 25 40 49 51 51 52 60 57
225 216 195 191 185 189 187 188 176 180 189 198 219 201 208 204 207 218 167 98 38 41 91 145 93 350 13 24 6 14 339 352 19 24 38 34 31 47 59 54 47 56 59
206 201 195 188 185 183 177 169 177 178 182 159 151 166 215 204 215 232 179 144 154 148 157 144 178 145 356 30 11 8 11 38 34 49 26 40 29 67 65 59 66 60 71
206 190 181 183 172 179 175 176 179 184 185 177 191 194 146 94 181 210 121 131 167 149 157 150 177 150 138 99 60 33 32 33 28 45 55 60 37 44 63 68 60 83 71
195 176 177 172 181 180 181 187 186 186 190 191 201 188 178 184 195 191 196 182 194 191 167 159 165 159 154 141 101 76 66 59 44 50 39 33 51 80 58 74 82 80 96
183 170 172 186 183 180 184 180 182 188 191 192 185 189 199 186 182 187 197 208 184 183 202 152 157 164 167 160 146 130 116 110 87 69 72 59 61 65 64 67 64 60 59
177 167 169 184 192 173 174 180 186 189 191 194 179 182 197 192 193 198 195 180 174 163 164 149 144 146 162 144 142 141 137 156 159 145 114 95 83 76 67 80 85 76 65
171 174 176 180 183 178 189 188 194 191 187 187 183 187 195 193 184 190 186 160 157 148 154 159 155 151 149 147 142 130 120 128 134 131 125 119 112 100 94 86 86 91 98
154 171 180 181 187 192 192 193 192 192 191 190 190 191 193 189 177 172 163 159 157 153 167 169 157 158 158 155 152 141 150 123 123 124 110 105 113 112 106 103 109 92 83
158 183 198 185 188 190 196 199 198 192 193 196 194 193 189 191 182 170 160 160 162 162 155 161 172 165 158 155 152 146 139 133 128 126 116 111 112 104 97 102 97 96 104